Weather History for KHUL - May, 2013

Change the Weather History Date:

Tuesday, May 21, 2013

  Actual Average Record
Temperature  
Mean Temperature 56 °F 53 °F  
Max Temperature 63 °F 66 °F 91 °F (1992)
Min Temperature 49 °F 40 °F 27 °F (1974)
Degree Days  
Heating Degree Days 9 12  
Month to date heating degree days 259 325  
Since 1 July heating degree days 8236 8898  
Cooling Degree Days 0 0  
Month to date cooling degree days 0 0  
Year to date cooling degree days 0 0  
Growing Degree Days 4 (Base 50)    
Moisture  
Dew Point 50 °F    
Average Humidity 82    
Maximum Humidity 100    
Minimum Humidity 64    
Precipitation  
Precipitation 0.14 in 0.12 in 1.39 in (1973)
Month to date precipitation 1.24 2.21  
Year to date precipitation 6.76 13.54  
Sea Level Pressure  
Sea Level Pressure 30.01 in    
Wind  
Wind Speed 3 mph (SSW)    
Max Wind Speed 10 mph    
Max Gust Speed 16 mph    
Visibility 5 miles    
Events Fog , Rain    
T = Trace of Precipitation, MM = Missing Value Source: NWS Daily Summary

Daily Weather History Graph

Daily Weather History Graph

Search for Another Location

Airport or City:

Trip Planner

Search our weather history database for the weather conditions in past years. The results will help you decide how hot, cold, wet, or windy it might be!

Date:

Astronomy

May. 21, 2013 Rise Set
Actual Time 4:51 AM EDT 8:04 PM EDT
Civil Twilight 4:15 AM EDT 8:40 PM EDT
Nautical Twilight 3:29 AM EDT 9:27 PM EDT
Astronomical Twilight 2:31 AM EDT 10:26 PM EDT
Moon 4:02 PM EDT (5/21) 2:31 AM EDT (5/21)
Length of Visible Light 16h 24m
Length of Day
15h 12m
Waxing Gibbous, 84% of the Moon is Illuminated
May 21
Waxing Gibbous
May 25
Full
May 31
Last Quarter
Jun 8
New
Jun 16
First Quarter

Hourly Weather History & Observations

Time (EDT) Temp. Dew Point Humidity Pressure Visibility Wind Dir Wind Speed Gust Speed Precip Events Conditions
12:07 AM 48.2 °F 48.2 °F 100% 30.00 in 2.5 mi SSW 5.8 mph - N/A   Overcast
12:26 AM 48.2 °F 48.2 °F 100% 30.00 in 3.0 mi South 3.5 mph - N/A   Overcast
12:33 AM 48.2 °F 48.2 °F 100% 30.00 in 1.8 mi South 4.6 mph - N/A   Overcast
12:42 AM 48.2 °F 48.2 °F 100% 29.99 in 1.2 mi South 4.6 mph - N/A   Overcast
12:47 AM 48.2 °F 48.2 °F 100% 29.99 in 2.0 mi South 3.5 mph - N/A   Overcast
12:53 AM 48.9 °F 48.9 °F 100% 30.01 in 3.0 mi Calm Calm - N/A   Overcast
1:53 AM 48.9 °F 48.9 °F 100% 30.00 in 2.0 mi SSW 4.6 mph - N/A   Overcast
2:02 AM 48.2 °F 48.2 °F 100% 29.99 in 1.8 mi SSW 4.6 mph - N/A   Overcast
2:42 AM 48.2 °F 48.2 °F 100% 29.98 in 1.5 mi SSW 3.5 mph - N/A   Overcast
2:53 AM 48.9 °F 48.9 °F 100% 30.00 in 1.8 mi SSW 3.5 mph - N/A   Overcast
3:20 AM 48.2 °F 48.2 °F 100% 29.98 in 1.2 mi South 3.5 mph - N/A   Overcast
3:45 AM 48.2 °F 48.2 °F 100% 29.98 in 1.5 mi Calm Calm - N/A   Overcast
3:53 AM 48.9 °F 48.9 °F 100% 29.99 in 1.8 mi Calm Calm - N/A   Overcast
4:31 AM 48.2 °F 48.2 °F 100% 29.99 in 1.0 mi South 3.5 mph - N/A   Overcast
4:53 AM 48.9 °F 48.9 °F 100% 29.99 in 1.8 mi Calm Calm - N/A   Overcast
5:07 AM 48.2 °F 48.2 °F 100% 29.98 in 1.0 mi SSW 3.5 mph - N/A   Overcast
5:16 AM 48.2 °F 48.2 °F 100% 29.98 in 0.5 mi SSW 3.5 mph - N/A Fog Fog
5:43 AM 48.2 °F 48.2 °F 100% 29.98 in 1.0 mi Calm Calm - N/A   Overcast
5:53 AM 48.9 °F 48.9 °F 100% 29.99 in 0.8 mi Calm Calm - N/A   Overcast
6:16 AM 50.0 °F 48.2 °F 94% 29.99 in 1.5 mi SSW 5.8 mph - N/A   Overcast
6:21 AM 48.2 °F 48.2 °F 100% 30.00 in 3.0 mi SSW 5.8 mph - N/A   Overcast
6:53 AM 50.0 °F 48.9 °F 96% 30.00 in 1.5 mi South 4.6 mph - N/A   Overcast
7:00 AM 50.0 °F 50.0 °F 100% 29.99 in 1.0 mi SSW 3.5 mph - N/A   Overcast
7:13 AM 50.0 °F 50.0 °F 100% 29.99 in 2.0 mi South 4.6 mph - N/A   Overcast
7:23 AM 50.0 °F 50.0 °F 100% 30.00 in 5.0 mi SSW 4.6 mph - N/A   Overcast
7:53 AM 51.1 °F 50.0 °F 96% 30.01 in 10.0 mi SSW 5.8 mph - N/A   Overcast
8:53 AM 51.1 °F 50.0 °F 96% 30.04 in 10.0 mi SW 3.5 mph - N/A   Overcast
9:53 AM 51.1 °F 51.1 °F 100% 30.04 in 5.0 mi SW 5.8 mph - 0.02 in Rain Light Rain
10:09 AM 51.8 °F 51.8 °F 100% 30.02 in 5.0 mi SSW 5.8 mph - 0.01 in Rain Light Rain
10:31 AM 51.8 °F 51.8 °F 100% 30.05 in 5.0 mi Variable 4.6 mph - 0.02 in Rain Light Rain
10:40 AM 51.8 °F 51.8 °F 100% 30.05 in 6.0 mi Calm Calm - 0.03 in Rain Light Rain
10:53 AM 52.0 °F 51.1 °F 97% 30.05 in 4.0 mi Calm Calm - 0.04 in Rain Light Rain
11:26 AM 51.8 °F 51.8 °F 100% 30.02 in 2.5 mi SSW 5.8 mph - 0.06 in Rain Rain
11:36 AM 53.6 °F 51.8 °F 94% 30.01 in 4.0 mi South 6.9 mph - 0.07 in Rain Light Rain
11:53 AM 53.1 °F 52.0 °F 96% 30.01 in 9.0 mi SSW 6.9 mph 16.1 mph 0.08 in Rain Light Rain
12:05 PM 53.6 °F 53.6 °F 100% 30.00 in 10.0 mi Variable 5.8 mph - 0.00 in Rain Light Rain
12:27 PM 55.4 °F 51.8 °F 88% 30.01 in 10.0 mi Calm Calm - 0.00 in   Overcast
12:53 PM 57.0 °F 52.0 °F 83% 30.03 in 10.0 mi North 3.5 mph - 0.00 in   Mostly Cloudy
1:01 PM 57.2 °F 51.8 °F 82% 30.02 in 10.0 mi North 3.5 mph - N/A   Mostly Cloudy
1:17 PM 57.2 °F 50.0 °F 77% 30.02 in 10.0 mi Calm Calm - N/A   Mostly Cloudy
1:53 PM 57.9 °F 51.1 °F 78% 30.02 in 10.0 mi NNE 3.5 mph - N/A   Mostly Cloudy
2:17 PM 57.2 °F 50.0 °F 77% 30.02 in 10.0 mi North 5.8 mph - N/A   Mostly Cloudy
2:53 PM 59.0 °F 50.0 °F 72% 30.03 in 10.0 mi Calm Calm - N/A   Partly Cloudy
3:53 PM 59.0 °F 48.9 °F 69% 30.02 in 10.0 mi Calm Calm - N/A   Partly Cloudy
4:53 PM 61.0 °F 48.9 °F 64% 30.01 in 10.0 mi SSE 3.5 mph - N/A   Scattered Clouds
5:53 PM 59.0 °F 51.1 °F 75% 30.01 in 10.0 mi South 3.5 mph - N/A   Scattered Clouds
6:53 PM 57.9 °F 50.0 °F 75% 30.03 in 10.0 mi Calm Calm - N/A   Clear
7:53 PM 55.0 °F 50.0 °F 83% 30.04 in 10.0 mi SSW 3.5 mph - N/A   Clear
8:53 PM 53.1 °F 48.9 °F 86% 30.04 in 10.0 mi SSW 3.5 mph - N/A   Clear
9:53 PM 52.0 °F 48.9 °F 89% 30.04 in 10.0 mi SSW 3.5 mph - N/A   Clear
10:53 PM 52.0 °F 48.9 °F 89% 30.01 in 10.0 mi South 4.6 mph - N/A   Clear
11:53 PM 51.1 °F 48.9 °F 92% 30.02 in 10.0 mi Calm Calm - N/A   Clear